AirNav   ProFlight Series 2 Aviation Headset
 
 1533 users online  

MU61 Belton Regional Medical Center Heliport
Belton, Missouri, USA

GOING TO BELTON?


FAA INFORMATION EFFECTIVE 08 OCTOBER 2020

Location

FAA Identifier: MU61
Lat/Long: 38-48-59.9300N 094-30-12.8900W
38-48.998833N 094-30.214833W
38.8166472,-94.5035806
(estimated)
Elevation: 1070 ft. / 326 m (estimated)
Variation: 05E (1980)
From city: 5 miles E of BELTON, MO
Time zone: UTC -5 (UTC -6 during Standard Time)
Zip code: 64012

Heliport Operations

Heliport use: Private use, MEDICAL.
Activation date: 10/1986
Control tower: no
ARTCC: KANSAS CITY CENTER
FSS: COLUMBIA FLIGHT SERVICE STATION
Attendance: UNATNDD
Wind indicator: yes
Segmented circle: no
Lights: FOR PERIMETER LGTS CALL 816-348-1200.

Heliport Communications

WX ASOS at LXT (11 nm NE): 124.175 (816-347-9807)
WX ASOS at OJC (11 nm W): 119.35 (913-780-6969)
WX AWOS-3PT at LRY (14 nm SE): 119.975 (816-380-5936)
WX ASOS at IXD (18 nm W): 135.325 (913-780-6987)
WX ASOS at MKC (19 nm N): PHONE 816-329-2843

Nearby radio navigation aids

VOR radial/distance  VOR name  Freq  Var
ANXr219/24.2NAPOLEON VORTAC114.0007E
MCIr154/30.1KANSAS CITY VORTAC113.2505E
BUMr352/32.7BUTLER VORTAC115.9007E

 
NDB name  Hdg/Dist  Freq  Var  ID
HERBB067/11.642004EPK .--. -.-

Heliport Services

Runway Information

Helipad H1

Dimensions: 40 x 40 ft. / 12 x 12 m
Surface: concrete
Runway edge lights: PERI
Latitude: 38-48.998833N
Longitude: 094-30.214833W
Elevation: 1070.0 ft.
Traffic pattern: leftleft

Heliport Ownership and Management from official FAA records

Ownership: Privately-owned
Owner: BELTON REGIONAL MEDICAL CENTER
17065 SOUTH 71 HWY
BELTON, MO 64012
Phone 816-348-1200
Manager: BERNIE SWANNER
17065 SOUTH 71 HWY
BELTON, MO 64012
Phone 816-348-1200

Additional Remarks

FOR CD CTC KANSAS CITY APCH AT 816-329-2710.

Instrument Procedures

There are no published instrument procedures at MU61.

Some nearby airports with instrument procedures:

KLXT - Lee's Summit Municipal Airport (11 nm NE)
KOJC - Johnson County Executive Airport (11 nm W)
KLRY - Lawrence Smith Memorial Airport (14 nm SE)
3GV - East Kansas City Airport (18 nm NE)
KIXD - New Century AirCenter Airport (18 nm W)
KMKC - Charles B Wheeler Downtown Airport (19 nm N)
 
Loc | Ops | Rwys | IFR | FBO | Links
Com | Nav | Svcs | Stats | Notes
Area around MU61 (Belton Regional Medical Center Heliport)
 
Road maps at: MapQuest Bing Google
 
Aerial photo
No photo
 
Sectional chart

 
Airport distance calculator
Flying to Belton Regional Medical Center Heliport? Find the distance to fly.

From to MU61

Sunrise and sunset
Times for 22-Oct-2020
 Local
(UTC-5)
 Zulu
(UTC)
Morning civil twilight07:0912:09
Sunrise07:3712:37
Sunset18:2823:28
Evening civil twilight18:5523:55

Current date and time
Zulu (UTC)  22-Oct-2020 20:35:47
Local (UTC-5)  22-Oct-2020 15:35:47
 
METAR
KOJC 
11nm W 
221953Z 20012G29KT 10SM FEW047 28/18 A2978 RMK AO2 PK WND 19034/1911 SLP076 T02780183
KLXT 
11nm NE 
221953Z AUTO 18022G30KT 10SM SCT047 SCT055 26/17 A2980 RMK AO2 PK WND 20035/1856 SLPNO T02610172
KLRY 
14nm SE 
222015Z AUTO 19013G20KT 156V216 7SM SCT049 30/16 A2983 RMK AO2
KIXD 
18nm W 
221953Z 18020G36KT 10SM CLR 29/17 A2978 RMK AO2 PK WND 19039/1935 SLP076 T02890167
KMKC 
19nm N 
221954Z 20016G26KT 10SM FEW050 29/17 A2977 RMK AO2 PK WND 21032/1926 SLP077 T02890167
TAF
KIXD 
18nm W 
221722Z 2218/2318 20025G35KT P6SM BKN250 FM230200 29012KT P6SM -RA BKN050 OVC250 FM230600 33015KT 5SM -TSRA OVC010CB FM231200 34016KT P6SM OVC010
KMKC 
19nm N 
221722Z 2218/2318 20025G35KT P6SM SCT250 FM230000 19010G17KT P6SM VCTS BKN050CB OVC250 FM230400 35010G17KT 6SM -TSRA OVC015CB FM230800 35015G20KT 6SM -RA OVC015 FM231100 35015G22KT P6SM OVC015
NOTAMs
Click for the latest NOTAMs
NOTAMs are issued by the DoD/FAA and will open in a separate window not controlled by AirNav.

 

 
 

Would you like to see your business listed on this page?

 If your business provides an interesting product or service to pilots, flight crews, aircraft, or users of the Belton Regional Medical Center Heliport, you should consider listing it here.  To start the listing process, click on the button below
 
Add a business
 

Other Pages about Belton Regional Medical Center Heliport

Update a link
 
Copyright © AirNav, LLC. All rights reserved. Privacy Policy  Contact